Location: Castro Valley
(37.6940°N, 122.0850°W)
Time: 15:11:46
(UTC-07:00)

PANSAT - Visible Passes

Search period start: 25 July 2014 00:00
Search period end: 04 August 2014 00:00
Orbit: 492 x 498 km, 28.5° (Epoch: 24 July)

Date Brightness Start Highest point End Pass type
(mag) Time Alt. Az. Time Alt. Az. Time Alt. Az.
29 Jul 10.1 04:23:51 10° SSE 04:23:51 10° SSE 04:24:03 10° SSE visible
30 Jul 9.3 05:35:06 10° SW 05:37:56 20° S 05:40:47 10° SE visible
31 Jul 9.3 05:11:06 14° SSW 05:13:00 20° S 05:15:52 10° SE visible
01 Aug 9.1 04:47:33 20° S 04:48:03 20° S 04:50:56 10° SE visible
02 Aug 9.4 04:24:04 19° SSE 04:24:04 19° SSE 04:26:00 10° SE visible
03 Aug 10.1 04:00:39 12° SE 04:00:39 12° SE 04:01:04 10° SE visible
03 Aug 9.4 05:35:11 10° SW 05:37:46 17° S 05:40:21 10° SSE visible
